Location: Newark
(47.4000°N, 7.5833°E)
Time: 01:58:06
(UTC+00:00)

N. Korean satellite - Pass Details

Date: 30 January 2020
Orbit: 456 x 505 km, 97.2° (Epoch: 21 February)

Event Time Altitude Azimuth Distance (km) Brightness Sun altitude
Rises 17:20:06 0° 203° (SSW) 2,463 10.8 -9.2°
Reaches altitude 10° 17:22:38 10° 223° (SW) 1,598 10.2 -9.6°
Maximum altitude 17:25:01 18° 268° (W) 1,214 9.8 -10.0°
Drops below altitude 10° 17:27:25 10° 312° (NW) 1,618 9.7 -10.4°
Sets 17:30:00 0° 332° (NNW) 2,507 10.4 -10.8°
